| time (UTC) | temp F | wind direction | speed MPH | gust MPH | rain 1hr in | rain 24hr in | rain mn in | humidity % | barometer mb |
| 20260906052837 | 70 | 235 | 0.0 | 0.0 | 0.00 | 0.00 | 0.00 | 34 | 1014.7 |
| 20260906052436 | 70 | 233 | 0.0 | 0.0 | 0.00 | 0.00 | 0.00 | 34 | 1014.6 |
| 20260906051232 | 70 | 279 | 1.0 | 1.0 | 0.00 | 0.00 | 0.00 | 33 | 1014.6 |
| 20260906050429 | 70 | 288 | 1.0 | 1.0 | 0.00 | 0.00 | 0.00 | 33 | 1014.7 |
| 20260906045627 | 71 | 38 | 1.0 | 1.0 | 0.00 | 0.00 | 0.00 | 33 | 1014.7 |
| 20260906045226 | 71 | 315 | 0.0 | 1.0 | 0.00 | 0.00 | 0.00 | 32 | 1014.7 |
| 20260906044825 | 71 | 270 | 1.0 | 1.0 | 0.00 | 0.00 | 0.00 | 32 | 1014.7 |
| 20260906044423 | 71 | 303 | 0.0 | 1.0 | 0.00 | 0.00 | 0.00 | 32 | 1014.7 |
| 20260906044021 | 71 | 303 | 1.0 | 1.0 | 0.00 | 0.00 | 0.00 | 32 | 1014.8 |
| 20260906043620 | 71 | 346 | 1.0 | 1.0 | 0.00 | 0.00 | 0.00 | 32 | 1014.8 |
| 20260906043219 | 72 | 330 | 1.0 | 1.0 | 0.00 | 0.00 | 0.00 | 31 | 1014.8 |
| 20260906042818 | 72 | 292 | 0.0 | 1.0 | 0.00 | 0.00 | 0.00 | 31 | 1014.8 |
| 20260906042417 | 72 | 301 | 1.0 | 2.0 | 0.00 | 0.00 | 0.00 | 31 | 1014.8 |
| 20260906041213 | 73 | 261 | 0.0 | 1.0 | 0.00 | 0.00 | 0.00 | 30 | 1014.7 |
| 20260906040812 | 74 | 235 | 0.0 | 2.0 | 0.00 | 0.00 | 0.00 | 30 | 1014.7 |
| 20260906035206 | 74 | 261 | 1.0 | 1.0 | 0.00 | 0.00 | 0.00 | 29 | 1014.5 |
| 20260906034805 | 75 | 326 | 1.0 | 2.0 | 0.00 | 0.00 | 0.00 | 29 | 1014.5 |
| 20260906034404 | 75 | 283 | 0.0 | 2.0 | 0.00 | 0.00 | 0.00 | 29 | 1014.3 |
| 20260906033602 | 76 | 306 | 0.0 | 0.0 | 0.00 | 0.00 | 0.00 | 28 | 1014.3 |
| 20260906033200 | 76 | 335 | 0.0 | 1.0 | 0.00 | 0.00 | 0.00 | 27 | 1014.3 |
| 20260906032357 | 77 | 315 | 0.0 | 1.0 | 0.00 | 0.00 | 0.00 | 27 | 1014.0 |
| 20260906031555 | 78 | 333 | 1.0 | 1.0 | 0.00 | 0.00 | 0.00 | 26 | 1014.1 |
| 20260906030752 | 79 | 135 | 0.0 | 1.0 | 0.00 | 0.00 | 0.00 | 25 | 1013.9 |
| 20260906030351 | 79 | 229 | 0.0 | 1.0 | 0.00 | 0.00 | 0.00 | 25 | 1013.9 |
| 20260906025950 | 79 | 212 | 0.0 | 2.0 | 0.00 | 0.00 | 0.00 | 25 | 1013.8 |
| 20260906025549 | 80 | 189 | 0.0 | 1.0 | 0.00 | 0.00 | 0.00 | 25 | 1013.8 |
| 20260906025148 | 80 | 182 | 1.0 | 1.0 | 0.00 | 0.00 | 0.00 | 24 | 1013.7 |
| 20260906024746 | 80 | 87 | 0.0 | 1.0 | 0.00 | 0.00 | 0.00 | 24 | 1013.7 |
| 20260906024345 | 81 | 42 | 0.0 | 1.0 | 0.00 | 0.00 | 0.00 | 24 | 1013.8 |
| 20260906023943 | 82 | 40 | 0.0 | 2.0 | 0.00 | 0.00 | 0.00 | 23 | 1013.7 |
| 20260906023542 | 82 | 76 | 0.0 | 1.0 | 0.00 | 0.00 | 0.00 | 23 | 1013.8 |
| 20260906023142 | 83 | 210 | 0.0 | 3.0 | 0.00 | 0.00 | 0.00 | 23 | 1013.7 |
| 20260906022740 | 84 | 186 | 2.0 | 2.0 | 0.00 | 0.00 | 0.00 | 22 | 1013.7 |
| 20260906022339 | 84 | 173 | 2.0 | 2.0 | 0.00 | 0.00 | 0.00 | 22 | 1013.6 |
| 20260906021937 | 84 | 195 | 1.0 | 2.0 | 0.00 | 0.00 | 0.00 | 21 | 1013.7 |
| 20260906021134 | 85 | 193 | 1.0 | 3.0 | 0.00 | 0.00 | 0.00 | 21 | 1013.6 |
| 20260906020733 | 85 | 135 | 2.0 | 2.0 | 0.00 | 0.00 | 0.00 | 21 | 1013.7 |
| 20260906015931 | 86 | 137 | 1.0 | 3.0 | 0.00 | 0.00 | 0.00 | 20 | 1013.6 |
| 20260906015530 | 86 | 135 | 1.0 | 3.0 | 0.00 | 0.00 | 0.00 | 20 | 1013.6 |
| 20260906014731 | 87 | 135 | 1.0 | 2.0 | 0.00 | 0.00 | 0.00 | 19 | 1013.5 |
| 20260906014325 | 88 | 186 | 3.0 | 3.0 | 0.00 | 0.00 | 0.00 | 19 | 1013.5 |
| 20260906013924 | 88 | 166 | 3.0 | 5.0 | 0.00 | 0.00 | 0.00 | 19 | 1013.5 |
| 20260906011918 | 90 | 198 | 4.0 | 4.0 | 0.00 | 0.00 | 0.00 | 18 | 1013.6 |
| 20260906011517 | 90 | 177 | 4.0 | 4.0 | 0.00 | 0.00 | 0.00 | 18 | 1013.7 |
| 20260906011115 | 90 | 189 | 3.0 | 5.0 | 0.00 | 0.00 | 0.00 | 17 | 1013.6 |
| 20260906010714 | 91 | 175 | 2.0 | 3.0 | 0.00 | 0.00 | 0.00 | 17 | 1013.5 |
| 20260906005915 | 91 | 193 | 3.0 | 8.0 | 0.00 | 0.00 | 0.00 | 18 | 1013.6 |
| 20260906004306 | 93 | 182 | 4.0 | 7.0 | 0.00 | 0.00 | 0.00 | 16 | 1013.6 |
| 20260906003904 | 93 | 189 | 6.0 | 6.0 | 0.00 | 0.00 | 0.00 | 16 | 1013.6 |
| 20260906002300 | 93 | 193 | 6.0 | 7.0 | 0.00 | 0.00 | 0.00 | 16 | 1013.5 |
| 20260906001859 | 93 | 184 | 5.0 | 6.0 | 0.00 | 0.00 | 0.00 | 17 | 1013.5 |
| 20260906001457 | 93 | 185 | 2.0 | 6.0 | 0.00 | 0.00 | 0.00 | 17 | 1013.5 |
| 20260906001056 | 93 | 142 | 4.0 | 9.0 | 0.00 | 0.00 | 0.00 | 17 | 1013.6 |
| 20260906000655 | 93 | 160 | 3.0 | 12.0 | 0.00 | 0.00 | 0.00 | 15 | 1013.6 |
| 20260906000256 | 95 | 184 | 6.0 | 6.0 | 0.00 | 0.00 | 0.00 | 17 | 1013.6 |
| 20260905234648 | 94 | 175 | 4.0 | 9.0 | 0.00 | 0.00 | 0.00 | 17 | 1013.7 |
| 20260905234247 | 95 | 198 | 3.0 | 5.0 | 0.00 | 0.00 | 0.00 | 17 | 1013.6 |
| 20260905233846 | 96 | 184 | 7.0 | 9.0 | 0.00 | 0.00 | 0.00 | 17 | 1013.6 |
| 20260905233445 | 96 | 204 | 4.0 | 10.0 | 0.00 | 0.00 | 0.00 | 16 | 1013.5 |
| 20260905233043 | 97 | 180 | 6.0 | 7.0 | 0.00 | 0.00 | 0.00 | 16 | 1013.6 |
| 20260905232642 | 97 | 187 | 6.0 | 8.0 | 0.00 | 0.00 | 0.00 | 16 | 1013.6 |
| 20260905232240 | 97 | 186 | 6.0 | 12.0 | 0.00 | 0.00 | 0.00 | 16 | 1013.5 |
| 20260905231839 | 97 | 198 | 9.0 | 13.0 | 0.00 | 0.00 | 0.00 | 16 | 1013.6 |
| 20260905231037 | 97 | 171 | 7.0 | 10.0 | 0.00 | 0.00 | 0.00 | 16 | 1013.7 |
| 20260905230636 | 97 | 182 | 8.0 | 9.0 | 0.00 | 0.00 | 0.00 | 16 | 1013.7 |
| 20260905230234 | 97 | 216 | 8.0 | 10.0 | 0.00 | 0.00 | 0.00 | 16 | 1013.7 |
| 20260905225834 | 97 | 186 | 6.0 | 15.0 | 0.00 | 0.00 | 0.00 | 15 | 1013.8 |
| 20260905225432 | 97 | 190 | 7.0 | 12.0 | 0.00 | 0.00 | 0.00 | 15 | 1013.8 |
| 20260905225030 | 97 | 237 | 2.0 | 11.0 | 0.00 | 0.00 | 0.00 | 15 | 1013.7 |
| 20260905224629 | 97 | 81 | 2.0 | 9.0 | 0.00 | 0.00 | 0.00 | 14 | 1013.8 |
| 20260905224229 | 97 | 234 | 6.0 | 16.0 | 0.00 | 0.00 | 0.00 | 15 | 1013.9 |
| 20260905223826 | 97 | 208 | 6.0 | 10.0 | 0.00 | 0.00 | 0.00 | 15 | 1013.9 |
| 20260905223425 | 97 | 279 | 2.0 | 8.0 | 0.00 | 0.00 | 0.00 | 14 | 1013.9 |
| 20260905223055 | 98 | 182 | 11.0 | 13.0 | 0.00 | 0.00 | 0.00 | 16 | 1014.0 |
| 20260905223024 | 98 | 182 | 11.0 | 13.0 | 0.00 | 0.00 | 0.00 | 16 | 1014.0 |
| 20260905221820 | 99 | 184 | 6.0 | 9.0 | 0.00 | 0.00 | 0.00 | 15 | 1014.1 |
| 20260905221418 | 98 | 189 | 5.0 | 8.0 | 0.00 | 0.00 | 0.00 | 16 | 1014.0 |
| 20260905221017 | 99 | 217 | 4.0 | 7.0 | 0.00 | 0.00 | 0.00 | 15 | 1014.0 |
| 20260905220616 | 98 | 135 | 3.0 | 8.0 | 0.00 | 0.00 | 0.00 | 15 | 1014.1 |
| 20260905220215 | 97 | 174 | 6.0 | 11.0 | 0.00 | 0.00 | 0.00 | 16 | 1014.1 |
| 20260905215814 | 98 | 146 | 3.0 | 7.0 | 0.00 | 0.00 | 0.00 | 16 | 1014.2 |
| 20260905215412 | 99 | 137 | 4.0 | 7.0 | 0.00 | 0.00 | 0.00 | 15 | 1014.3 |
| 20260905215011 | 98 | 240 | 3.0 | 8.0 | 0.00 | 0.00 | 0.00 | 15 | 1014.2 |
| 20260905212603 | 97 | 182 | 8.0 | 11.0 | 0.00 | 0.00 | 0.00 | 16 | 1014.5 |
| 20260905212202 | 97 | 185 | 6.0 | 12.0 | 0.00 | 0.00 | 0.00 | 16 | 1014.6 |
| 20260905211801 | 97 | 199 | 8.0 | 13.0 | 0.00 | 0.00 | 0.00 | 15 | 1014.5 |
| 20260905211359 | 97 | 99 | 2.0 | 9.0 | 0.00 | 0.00 | 0.00 | 16 | 1014.6 |
| 20260905210959 | 97 | 185 | 9.0 | 9.0 | 0.00 | 0.00 | 0.00 | 16 | 1014.6 |
| 20260905210557 | 98 | 56 | 3.0 | 7.0 | 0.00 | 0.00 | 0.00 | 16 | 1014.6 |
| 20260905210157 | 97 | 189 | 6.0 | 12.0 | 0.00 | 0.00 | 0.00 | 17 | 1014.6 |
| 20260905205754 | 97 | 202 | 7.0 | 12.0 | 0.00 | 0.00 | 0.00 | 16 | 1014.6 |
| 20260905205353 | 97 | 292 | 3.0 | 6.0 | 0.00 | 0.00 | 0.00 | 16 | 1014.6 |
| 20260905204952 | 98 | 244 | 7.0 | 9.0 | 0.00 | 0.00 | 0.00 | 17 | 1014.8 |
| 20260905203747 | 97 | 135 | 1.0 | 9.0 | 0.00 | 0.00 | 0.00 | 18 | 1014.9 |
| 20260905202947 | 97 | 288 | 2.0 | 8.0 | 0.00 | 0.00 | 0.00 | 18 | 1015.0 |
| 20260905202544 | 97 | 182 | 6.0 | 7.0 | 0.00 | 0.00 | 0.00 | 18 | 1015.0 |
| 20260905202143 | 97 | 185 | 3.0 | 5.0 | 0.00 | 0.00 | 0.00 | 19 | 1015.0 |
| 20260905201741 | 96 | 198 | 3.0 | 8.0 | 0.00 | 0.00 | 0.00 | 19 | 1015.0 |
| 20260905201343 | 96 | 159 | 4.0 | 6.0 | 0.00 | 0.00 | 0.00 | 19 | 1015.0 |
| 20260905200941 | 95 | 162 | 3.0 | 9.0 | 0.00 | 0.00 | 0.00 | 19 | 1015.1 |
| 20260905200537 | 93 | 148 | 3.0 | 8.0 | 0.00 | 0.00 | 0.00 | 19 | 1015.1 |
| 20260905195735 | 93 | 130 | 6.0 | 8.0 | 0.00 | 0.00 | 0.00 | 20 | 1015.2 |
| 20260905195334 | 92 | 92 | 6.0 | 13.0 | 0.00 | 0.00 | 0.00 | 20 | 1015.3 |
| 20260905194933 | 93 | 90 | 8.0 | 9.0 | 0.00 | 0.00 | 0.00 | 20 | 1015.3 |
| 20260905194531 | 94 | 150 | 6.0 | 8.0 | 0.00 | 0.00 | 0.00 | 20 | 1015.5 |
| 20260905194130 | 93 | 137 | 4.0 | 11.0 | 0.00 | 0.00 | 0.00 | 20 | 1015.4 |
| 20260905193729 | 92 | 96 | 7.0 | 10.0 | 0.00 | 0.00 | 0.00 | 20 | 1015.3 |
| 20260905193327 | 93 | 92 | 6.0 | 10.0 | 0.00 | 0.00 | 0.00 | 20 | 1015.4 |
| 20260905192123 | 93 | 151 | 2.0 | 7.0 | 0.00 | 0.00 | 0.00 | 21 | 1015.6 |
| 20260905191722 | 93 | 36 | 0.0 | 4.0 | 0.00 | 0.00 | 0.00 | 21 | 1015.7 |
| 20260905191321 | 92 | 130 | 2.0 | 7.0 | 0.00 | 0.00 | 0.00 | 21 | 1015.7 |
| 20260905190920 | 91 | 94 | 5.0 | 10.0 | 0.00 | 0.00 | 0.00 | 21 | 1015.8 |
| 20260905190116 | 93 | 198 | 5.0 | 8.0 | 0.00 | 0.00 | 0.00 | 22 | 1015.8 |
| 20260905185715 | 93 | 191 | 3.0 | 5.0 | 0.00 | 0.00 | 0.00 | 21 | 1015.9 |
| 20260905183709 | 92 | 139 | 6.0 | 7.0 | 0.00 | 0.00 | 0.00 | 23 | 1016.1 |
| 20260905183308 | 90 | 159 | 0.0 | 4.0 | 0.00 | 0.00 | 0.00 | 23 | 1016.1 |
| 20260905182907 | 88 | 85 | 4.0 | 9.0 | 0.00 | 0.00 | 0.00 | 24 | 1016.1 |
| 20260905182104 | 91 | 155 | 1.0 | 8.0 | 0.00 | 0.00 | 0.00 | 25 | 1016.1 |
| 20260905181301 | 92 | 139 | 5.0 | 8.0 | 0.00 | 0.00 | 0.00 | 26 | 1016.2 |
| 20260905180900 | 91 | 173 | 5.0 | 7.0 | 0.00 | 0.00 | 0.00 | 27 | 1016.2 |
| 20260905180459 | 89 | 121 | 3.0 | 5.0 | 0.00 | 0.00 | 0.00 | 27 | 1016.2 |
| 20260905175256 | 90 | 108 | 2.0 | 7.0 | 0.00 | 0.00 | 0.00 | 29 | 1016.2 |
| 20260905174853 | 90 | 25 | 0.0 | 4.0 | 0.00 | 0.00 | 0.00 | 29 | 1016.1 |
| 20260905174452 | 90 | 290 | 1.0 | 5.0 | 0.00 | 0.00 | 0.00 | 30 | 1016.1 |
| 20260905174051 | 88 | 123 | 0.0 | 5.0 | 0.00 | 0.00 | 0.00 | 30 | 1016.1 |
| 20260905173650 | 86 | 125 | 4.0 | 8.0 | 0.00 | 0.00 | 0.00 | 31 | 1016.0 |
| 20260905173249 | 86 | 292 | 0.0 | 2.0 | 0.00 | 0.00 | 0.00 | 31 | 1016.0 |
| 20260905172847 | 85 | 70 | 2.0 | 9.0 | 0.00 | 0.00 | 0.00 | 32 | 1016.0 |
| 20260905172045 | 85 | 56 | 4.0 | 6.0 | 0.00 | 0.00 | 0.00 | 33 | 1016.1 |
| 20260905171243 | 86 | 150 | 1.0 | 5.0 | 0.00 | 0.00 | 0.00 | 34 | 1016.0 |
| 20260905170841 | 87 | 123 | 2.0 | 3.0 | 0.00 | 0.00 | 0.00 | 35 | 1016.0 |
| 20260905170441 | 86 | 186 | 3.0 | 3.0 | 0.00 | 0.00 | 0.00 | 36 | 1016.0 |
| 20260905170038 | 85 | 33 | 0.0 | 3.0 | 0.00 | 0.00 | 0.00 | 36 | 1015.9 |
| 20260905165637 | 85 | 290 | 2.0 | 2.0 | 0.00 | 0.00 | 0.00 | 37 | 1016.0 |
| 20260905165236 | 84 | 184 | 0.0 | 2.0 | 0.00 | 0.00 | 0.00 | 38 | 1015.9 |
| 20260905164834 | 85 | 322 | 2.0 | 2.0 | 0.00 | 0.00 | 0.00 | 38 | 1016.0 |
| 20260905164434 | 84 | 128 | 1.0 | 3.0 | 0.00 | 0.00 | 0.00 | 39 | 1016.0 |
| 20260905164032 | 84 | 121 | 1.0 | 3.0 | 0.00 | 0.00 | 0.00 | 40 | 1016.0 |
| 20260905163630 | 84 | 319 | 1.0 | 2.0 | 0.00 | 0.00 | 0.00 | 41 | 1016.0 |
| 20260905163229 | 84 | 308 | 0.0 | 2.0 | 0.00 | 0.00 | 0.00 | 42 | 1016.1 |
| 20260905162828 | 83 | 274 | 0.0 | 1.0 | 0.00 | 0.00 | 0.00 | 43 | 1016.1 |
| 20260905162427 | 82 | 180 | 1.0 | 1.0 | 0.00 | 0.00 | 0.00 | 44 | 1016.0 |
| 20260905155618 | 75 | 38 | 1.0 | 3.0 | 0.00 | 0.00 | 0.00 | 47 | 1016.0 |
| 20260905154815 | 74 | 326 | 1.0 | 3.0 | 0.00 | 0.00 | 0.00 | 48 | 1015.9 |
| 20260905154414 | 75 | 350 | 3.0 | 3.0 | 0.00 | 0.00 | 0.00 | 48 | 1015.9 |
| 20260905153210 | 74 | 299 | 0.0 | 2.0 | 0.00 | 0.00 | 0.00 | 48 | 1015.9 |
| 20260905152809 | 74 | 330 | 1.0 | 1.0 | 0.00 | 0.00 | 0.00 | 49 | 1015.9 |
| 20260905152407 | 73 | 270 | 1.0 | 1.0 | 0.00 | 0.00 | 0.00 | 49 | 1015.9 |
| 20260905151605 | 71 | 283 | 0.0 | 1.0 | 0.00 | 0.00 | 0.00 | 50 | 1015.9 |
| 20260905150803 | 69 | 31 | 1.0 | 1.0 | 0.00 | 0.00 | 0.00 | 50 | 1015.9 |
| 20260905150401 | 68 | 285 | 0.0 | 1.0 | 0.00 | 0.00 | 0.00 | 51 | 1015.8 |
| 20260905150000 | 67 | 306 | 0.0 | 1.0 | 0.00 | 0.00 | 0.00 | 51 | 1015.8 |
| 20260905145558 | 66 | 324 | 1.0 | 2.0 | 0.00 | 0.00 | 0.00 | 51 | 1015.7 |
| 20260905145157 | 65 | 342 | 0.0 | 1.0 | 0.00 | 0.00 | 0.00 | 51 | 1015.6 |
| 20260905144355 | 64 | 353 | 0.0 | 0.0 | 0.00 | 0.00 | 0.00 | 52 | 1015.7 |
| 20260905143954 | 63 | 328 | 0.0 | 0.0 | 0.00 | 0.00 | 0.00 | 52 | 1015.5 |
| 20260905143552 | 62 | 38 | 0.0 | 0.0 | 0.00 | 0.00 | 0.00 | 52 | 1015.5 |
| 20260905143150 | 62 | 326 | 0.0 | 0.0 | 0.00 | 0.00 | 0.00 | 53 | 1015.5 |
| 20260905142749 | 61 | 301 | 0.0 | 0.0 | 0.00 | 0.00 | 0.00 | 53 | 1015.4 |
| 20260905142348 | 60 | 334 | 0.0 | 1.0 | 0.00 | 0.00 | 0.00 | 53 | 1015.4 |
| 20260905141546 | 59 | 42 | 0.0 | 0.0 | 0.00 | 0.00 | 0.00 | 53 | 1015.5 |
| 20260905141144 | 58 | 42 | 0.0 | 0.0 | 0.00 | 0.00 | 0.00 | 53 | 1015.4 |
| 20260905140743 | 58 | 42 | 0.0 | 0.0 | 0.00 | 0.00 | 0.00 | 53 | 1015.3 |
| 20260905135940 | 57 | 135 | 0.0 | 0.0 | 0.00 | 0.00 | 0.00 | 53 | 1015.3 |
| 20260905135138 | 56 | 96 | 0.0 | 0.0 | 0.00 | 0.00 | 0.00 | 53 | 1015.2 |
| 20260905134335 | 56 | 330 | 0.0 | 0.0 | 0.00 | 0.00 | 0.00 | 53 | 1015.0 |
| 20260905133935 | 56 | 274 | 0.0 | 0.0 | 0.00 | 0.00 | 0.00 | 53 | 1015.1 |
| 20260905133533 | 56 | 274 | 0.0 | 0.0 | 0.00 | 0.00 | 0.00 | 53 | 1015.0 |
| 20260905133132 | 56 | 283 | 0.0 | 1.0 | 0.00 | 0.00 | 0.00 | 53 | 1014.9 |
| 20260905132734 | 56 | 297 | 1.0 | 1.0 | 0.00 | 0.00 | 0.00 | 53 | 1014.9 |
| 20260905132328 | 56 | 274 | 0.0 | 0.0 | 0.00 | 0.00 | 0.00 | 53 | 1014.9 |
| 20260905131927 | 56 | 315 | 0.0 | 0.0 | 0.00 | 0.00 | 0.00 | 53 | 1014.9 |
| 20260905131526 | 56 | 310 | 0.0 | 0.0 | 0.00 | 0.00 | 0.00 | 53 | 1014.8 |
| 20260905131125 | 56 | 299 | 0.0 | 0.0 | 0.00 | 0.00 | 0.00 | 53 | 1014.7 |
| 20260905130724 | 56 | 299 | 0.0 | 1.0 | 0.00 | 0.00 | 0.00 | 53 | 1014.7 |
| 20260905130322 | 56 | 310 | 0.0 | 0.0 | 0.00 | 0.00 | 0.00 | 53 | 1014.8 |
| 20260905125921 | 56 | 274 | 0.0 | 0.0 | 0.00 | 0.00 | 0.00 | 53 | 1014.7 |
| 20260905125520 | 56 | 292 | 0.0 | 0.0 | 0.00 | 0.00 | 0.00 | 53 | 1014.9 |
| 20260905124717 | 56 | 274 | 1.0 | 1.0 | 0.00 | 0.00 | 0.00 | 52 | 1014.8 |
| 20260905124317 | 56 | 301 | 0.0 | 0.0 | 0.00 | 0.00 | 0.00 | 52 | 1014.8 |
| 20260905123915 | 56 | 321 | 0.0 | 0.0 | 0.00 | 0.00 | 0.00 | 52 | 1014.8 |
| 20260905123513 | 56 | 326 | 0.0 | 0.0 | 0.00 | 0.00 | 0.00 | 52 | 1014.7 |
| 20260905122716 | 57 | 283 | 0.0 | 0.0 | 0.00 | 0.00 | 0.00 | 52 | 1014.7 |
| 20260905121909 | 57 | 279 | 0.0 | 0.0 | 0.00 | 0.00 | 0.00 | 52 | 1014.8 |
| 20260905121508 | 57 | 274 | 0.0 | 0.0 | 0.00 | 0.00 | 0.00 | 52 | 1014.9 |
| 20260905121106 | 57 | 294 | 0.0 | 0.0 | 0.00 | 0.00 | 0.00 | 52 | 1014.8 |
| 20260905120303 | 57 | 274 | 0.0 | 0.0 | 0.00 | 0.00 | 0.00 | 52 | 1014.8 |
| 20260905115902 | 57 | 279 | 0.0 | 0.0 | 0.00 | 0.00 | 0.00 | 52 | 1014.8 |
| 20260905115501 | 57 | 225 | 0.0 | 0.0 | 0.00 | 0.00 | 0.00 | 52 | 1014.7 |
| 20260905115100 | 57 | 237 | 0.0 | 0.0 | 0.00 | 0.00 | 0.00 | 52 | 1014.8 |
| 20260905114658 | 58 | 227 | 0.0 | 0.0 | 0.00 | 0.00 | 0.00 | 52 | 1014.8 |
| 20260905114257 | 58 | 229 | 0.0 | 0.0 | 0.00 | 0.00 | 0.00 | 52 | 1014.8 |
| 20260905113855 | 58 | 236 | 0.0 | 1.0 | 0.00 | 0.00 | 0.00 | 52 | 1014.7 |
| 20260905112653 | 58 | 274 | 1.0 | 1.0 | 0.00 | 0.00 | 0.00 | 51 | 1014.8 |
| 20260905112250 | 58 | 279 | 0.0 | 1.0 | 0.00 | 0.00 | 0.00 | 51 | 1014.9 |
| 20260905111849 | 58 | 279 | 0.0 | 1.0 | 0.00 | 0.00 | 0.00 | 51 | 1014.8 |
| 20260905111448 | 58 | 270 | 0.0 | 1.0 | 0.00 | 0.00 | 0.00 | 51 | 1014.9 |
| 20260905110244 | 58 | 299 | 0.0 | 0.0 | 0.00 | 0.00 | 0.00 | 51 | 1014.9 |
| 20260905105842 | 58 | 290 | 0.0 | 0.0 | 0.00 | 0.00 | 0.00 | 51 | 1014.9 |
| 20260905105444 | 58 | 339 | 0.0 | 0.0 | 0.00 | 0.00 | 0.00 | 51 | 1014.9 |
| 20260905105041 | 58 | 231 | 0.0 | 0.0 | 0.00 | 0.00 | 0.00 | 51 | 7014.9 |
| 20260905104639 | 58 | 303 | 0.0 | 0.0 | 0.00 | 0.00 | 0.00 | 50 | 1014.9 |
| 20260905104238 | 58 | 303 | 0.0 | 0.0 | 0.00 | 0.00 | 0.00 | 50 | 1015.0 |
| 20260905103837 | 58 | 297 | 0.0 | 0.0 | 0.00 | 0.00 | 0.00 | 50 | 1015.0 |
| 20260905103435 | 58 | 279 | 0.0 | 0.0 | 0.00 | 0.00 | 0.00 | 50 | 1015.0 |
| 20260905103033 | 58 | 283 | 0.0 | 0.0 | 0.00 | 0.00 | 0.00 | 50 | 1015.0 |
| 20260905102231 | 58 | 40 | 0.0 | 1.0 | 0.00 | 0.00 | 0.00 | 50 | 1015.0 |
| 20260905101430 | 58 | 283 | 0.0 | 0.0 | 0.00 | 0.00 | 0.00 | 50 | 1015.0 |
| 20260905101027 | 58 | 274 | 0.0 | 0.0 | 0.00 | 0.00 | 0.00 | 50 | 1015.0 |
| 20260905100627 | 58 | 307 | 0.0 | 0.0 | 0.00 | 0.00 | 0.00 | 50 | 1.0 |
| 20260905100225 | 58 | 283 | 0.0 | 0.0 | 0.00 | 0.00 | 0.00 | 50 | 1015.0 |
| 20260905095824 | 58 | 290 | 0.0 | 0.0 | 0.00 | 0.00 | 0.00 | 50 | 1015.0 |
| 20260905095422 | 58 | 283 | 0.0 | 0.0 | 0.00 | 0.00 | 0.00 | 50 | 1015.1 |
| 20260905095022 | 58 | 279 | 0.0 | 1.0 | 0.00 | 0.00 | 0.00 | 50 | 1015.0 |
| 20260905094620 | 58 | 279 | 0.0 | 0.0 | 0.00 | 0.00 | 0.00 | 49 | 1015.0 |
| 20260905094218 | 59 | 279 | 0.0 | 0.0 | 0.00 | 0.00 | 0.00 | 49 | 1014.9 |
| 20260905093015 | 59 | 274 | 0.0 | 0.0 | 0.00 | 0.00 | 0.00 | 49 | 1015.0 |
| 20260905092613 | 59 | 283 | 0.0 | 0.0 | 0.00 | 0.00 | 0.00 | 49 | 1015.0 |
| 20260905092211 | 59 | 283 | 0.0 | 0.0 | 0.00 | 0.00 | 0.00 | 49 | 1015.0 |
| 20260905091810 | 59 | 186 | 0.0 | 0.0 | 0.00 | 0.00 | 0.00 | 49 | 1015.0 |
| 20260905091409 | 59 | 279 | 0.0 | 0.0 | 0.00 | 0.00 | 0.00 | 49 | 1015.1 |
| 20260905091013 | 59 | 274 | 0.0 | 0.0 | 0.00 | 0.00 | 0.00 | 49 | 1015.1 |
| 20260905085804 | 60 | 274 | 0.0 | 0.0 | 0.00 | 0.00 | 0.00 | 48 | 1015.1 |
| 20260905085403 | 60 | 283 | 0.0 | 0.0 | 0.00 | 0.00 | 0.00 | 48 | 1015.2 |
| 20260905084600 | 60 | 303 | 0.0 | 0.0 | 0.00 | 0.00 | 0.00 | 48 | 1015.2 |
| 20260905084200 | 60 | 303 | 0.0 | 0.0 | 0.00 | 0.00 | 0.00 | 48 | 1015.2 |
| 20260905083758 | 60 | 303 | 0.0 | 0.0 | 0.00 | 0.00 | 0.00 | 48 | 1015.2 |
| 20260905083356 | 60 | 303 | 0.0 | 0.0 | 0.00 | 0.00 | 0.00 | 48 | 1015.2 |
| 20260905082955 | 60 | 279 | 0.0 | 0.0 | 0.00 | 0.00 | 0.00 | 48 | 1015.3 |
| 20260905082555 | 61 | 333 | 0.0 | 0.0 | 0.00 | 0.00 | 0.00 | 48 | 1015.2 |
| 20260905082155 | 61 | 337 | 0.0 | 0.0 | 0.00 | 0.00 | 0.00 | 47 | 1015.2 |
| 20260905081752 | 61 | 260 | 0.0 | 0.0 | 0.00 | 0.00 | 0.00 | 47 | 1015.3 |
| 20260905081350 | 61 | 234 | 0.0 | 0.0 | 0.00 | 0.00 | 0.00 | 47 | 1015.3 |
| 20260905080949 | 0 | 141 | 0.0 | 0.0 | 0.00 | 0.00 | 0.00 | 47 | |
| 20260905080547 | 61 | 283 | 0.0 | 1.0 | 0.00 | 0.00 | 0.00 | 47 | 1015.2 |
| 20260905080305 | 61 | 270 | 0.0 | 1.0 | 0.00 | 0.00 | 0.00 | 47 | 1015.2 |
| 20260905080146 | 61 | 270 | 0.0 | 1.0 | 0.00 | 0.00 | 0.00 | 47 | 1015.2 |
| 20260905075745 | 62 | 279 | 1.0 | 1.0 | 0.00 | 0.00 | 0.00 | 47 | 1015.2 |
| 20260905074943 | 62 | 279 | 1.0 | 1.0 | 0.00 | 0.00 | 0.00 | 47 | 1015.2 |
| 20260905074541 | 62 | 279 | 0.0 | 0.0 | 0.00 | 0.00 | 0.00 | 47 | 1015.2 |
| 20260905074140 | 62 | 346 | 0.0 | 0.0 | 0.00 | 0.00 | 0.00 | 46 | 1015.2 |
| 20260905073738 | 62 | 335 | 0.0 | 0.0 | 0.00 | 0.00 | 0.00 | 46 | 1015.2 |
| 20260905073338 | 62 | 339 | 0.0 | 0.0 | 0.00 | 0.00 | 0.00 | 46 | 1015.2 |
| 20260905072936 | 62 | 292 | 0.0 | 0.0 | 0.00 | 0.00 | 0.00 | 46 | 1015.2 |
| 20260905072535 | 62 | 274 | 0.0 | 1.0 | 0.00 | 0.00 | 0.00 | 46 | 1015.2 |
| 20260905072134 | 62 | 288 | 1.0 | 1.0 | 0.00 | 0.00 | 0.00 | 46 | 1015.2 |
| 20260905071733 | 62 | 310 | 0.0 | 0.0 | 0.00 | 0.00 | 0.00 | 46 | 1015.2 |
| 20260905071331 | 63 | 137 | 0.0 | 1.0 | 0.00 | 0.00 | 0.00 | 46 | 1015.2 |
| 20260905070930 | 63 | 137 | 0.0 | 0.0 | 0.00 | 0.00 | 0.00 | 46 | 1015.2 |
| 20260905070529 | 63 | 270 | 0.0 | 1.0 | 0.00 | 0.00 | 0.00 | 45 | 1015.2 |
| 20260905070127 | 63 | 227 | 0.0 | 0.0 | 0.00 | 0.00 | 0.00 | 45 | 1015.1 |
| 20260905065325 | 63 | 326 | 0.0 | 0.0 | 0.00 | 0.00 | 0.00 | 45 | 1015.1 |
| 20260905064121 | 64 | 137 | 0.0 | 0.0 | 0.00 | 0.00 | 0.00 | 45 | 1015.1 |
| 20260905062910 | 65 | 239 | 0.0 | 1.0 | 0.00 | 0.00 | 0.00 | 44 | 1014.9 |
| 20260905062509 | 65 | 221 | 1.0 | 1.0 | 0.00 | 0.00 | 0.00 | 44 | 1014.9 |
| 20260905062108 | 65 | 236 | 0.0 | 1.0 | 0.00 | 0.00 | 0.00 | 44 | 1015.0 |
| 20260905061306 | 65 | 279 | 0.0 | 1.0 | 0.00 | 0.00 | 0.00 | 44 | 1015.0 |
| 20260905060904 | 65 | 235 | 0.0 | 0.0 | 0.00 | 0.00 | 0.00 | 44 | 1015.0 |
| 20260905055702 | 66 | 321 | 0.0 | 0.0 | 0.00 | 0.00 | 0.00 | 43 | 1015.0 |
| 20260905055259 | 66 | 279 | 0.0 | 0.0 | 0.00 | 0.00 | 0.00 | 43 | 1015.0 |
| 20260905054901 | 66 | 339 | 0.0 | 0.0 | 0.00 | 0.00 | 0.00 | 43 | 1015.0 |
| 20260905054457 | 66 | 324 | 0.0 | 0.0 | 0.00 | 0.00 | 0.00 | 43 | 1014.9 |
| 20260905053654 | 66 | 324 | 0.0 | 0.0 | 0.00 | 0.00 | 0.00 | 43 | 1014.9 |
| 20260905053253 | 66 | 324 | 0.0 | 0.0 | 0.00 | 0.00 | 0.00 | 43 | 1014.9 |